TECHNOSAT (42829 NORAD) Tracking and Keplerian Element Data

This shows tracking and keplerian element data for the satellite.

Feedback or suggestion? Click here.




ElementValue
Catalog42829
NameTECHNOSAT
Epoch Orbit20808
Epoch Day130.8792643
Epoch Year2021
RAAN2.4033
Inclination97.4743
Eccentricity0.0012576
Argument of Perigee273.4677
Mean Anonmoly86.5104
Mean Motion14.9126958
Decay Rate8.2E-07
L11 42829U 17042E 21130.87926430 .00000082 00000-0 13514-4 0 9993
L22 42829 97.4743 2.4033 0012576 273.4677 86.5104 14.91269580208087

Live tracking and technical data element details for TECHNOSAT (NORAD 42829). TECHNOSAT can be tracked NOW for your location showing map with azimuth and elevation plus other details from your city location.

Track the satellite on the map from your city or location and see movement details for azimuth, elevation, latitude, longitude, range, height, and movement on the map or in text.







IsCatalogInMostPopularTable: catalog: 42829, numindb: 681
Update: records affected: 1



GetName: 42829 TECHNOSAT

Hit Count: updated at: Tue, 11 May 2021 20:10:58 GMT